Location: Recife
(8.0585°S, 34.8848°W)
Time: 09:50:13
(UTC-03:00)

Courier 1B Rocket - Pass Details

Date: 17 April 2026
Orbit: 920 x 1201 km, 28.2° (Epoch: 13 May)

Event Time Altitude Azimuth Distance (km) Brightness Sun altitude
Rises 06:30:11 0° 256° (WSW) 3,632 7.3 15.7°
Reaches altitude 10° 06:33:36 10° 238° (WSW) 2,730 6.8 16.6°
Maximum altitude 06:38:10 19° 194° (SSW) 2,196 6.7 17.7°
Drops below altitude 10° 06:42:57 10° 150° (SSE) 2,871 7.7 18.8°
Sets 06:46:42 0° 133° (SE) 3,886 8.6 19.7°
